GW2443 Weather Reports


Display with metric or nautical units.
time (UTC)temp
F
wind
direction
speed
MPH
gust
MPH
rain 1hr
in
rain 24hr
in
rain mn
in
humidity
%
barometer
mb
20260505125030 46 268 3.0 8.0 0.00 0.00 0.00 49 1008.9
20260505124603 46 280 2.0 11.0 0.00 0.00 0.00 50 1008.9
20260505124028 45 258 3.0 11.0 0.00 0.00 0.00 51 1008.8
20260505123528 45 278 2.0 6.0 0.00 0.00 0.00 51 1008.7
20260505123059 45 259 3.0 7.0 0.00 0.00 0.00 51 1008.9
20260505122531 45 264 2.0 8.0 0.00 0.00 0.00 52 1008.9
20260505122031 45 274 1.0 8.0 0.00 0.00 0.00 53 1008.8
20260505121553 44 265 1.0 4.0 0.00 0.00 0.00 54 1008.6
20260505121031 43 262 0.0 3.0 0.00 0.00 0.00 60 1008.6
20260505120530 43 215 1.0 3.0 0.00 0.00 0.00 61 1008.6
20260505120053 43 0 0.0 2.0 0.00 0.00 0.00 62 1008.5
20260505115533 43 0 0.0 2.0 0.00 0.00 0.00 62 1008.2
20260505115028 42 0 0.0 1.0 0.00 0.00 0.00 62 1007.8
20260505114548 42 0 0.0 1.0 0.00 0.00 0.00 62 1007.5
20260505114029 42 0 0.0 1.0 0.00 0.00 0.00 62 1007.4
20260505113530 42 0 0.0 0.0 0.00 0.00 0.00 62 1007.2
20260505113046 41 0 0.0 0.0 0.00 0.00 0.00 63 1007.1
20260505112528 41 0 0.0 0.0 0.00 0.00 0.00 64 1006.8
20260505112028 41 0 0.0 0.0 0.00 0.00 0.00 62 1006.4
20260505111545 41 0 0.0 1.0 0.00 0.00 0.00 61 1006.6
20260505111034 41 0 0.0 1.0 0.00 0.00 0.00 62 1006.9
20260505110531 41 0 0.0 1.0 0.00 0.00 0.00 61 1006.9
20260505102030 43 0 0.0 0.0 0.00 0.00 0.00 58 1006.6
20260505101553 43 0 0.0 0.0 0.00 0.00 0.00 58 1006.7
20260505101031 43 0 0.0 1.0 0.00 0.00 0.00 57 1006.7
20260505100531 43 0 0.0 1.0 0.00 0.00 0.00 56 1006.5
20260505100044 44 0 0.0 1.0 0.00 0.00 0.00 55 1006.3
20260505095530 44 0 0.0 1.0 0.00 0.00 0.00 54 1006.4
20260505095030 44 0 0.0 0.0 0.00 0.00 0.00 54 1006.2
20260505094541 44 0 0.0 1.0 0.00 0.00 0.00 53 1006.3
20260505094030 44 0 0.0 3.0 0.00 0.00 0.00 53 1006.4
20260505093530 44 0 0.0 3.0 0.00 0.00 0.00 53 1006.2
20260505093043 44 0 0.0 2.0 0.00 0.00 0.00 53 1006.4
20260505092531 44 0 0.0 2.0 0.00 0.00 0.00 53 1006.5
20260505092031 44 0 0.0 2.0 0.00 0.00 0.00 52 1006.4
20260505091542 45 0 0.0 2.0 0.00 0.00 0.00 52 1006.5
20260505091033 45 0 0.0 2.0 0.00 0.00 0.00 52 1006.4
20260505090530 45 0 0.0 2.0 0.00 0.00 0.00 51 1006.6
20260505090059 45 296 0.0 3.0 0.00 0.00 0.00 52 1006.6
20260505085530 45 0 0.0 4.0 0.00 0.00 0.00 52 1006.4
20260505085032 45 0 1.0 4.0 0.00 0.00 0.00 52 1006.3
20260505084550 45 306 0.0 4.0 0.00 0.00 0.00 52 1006.0
20260505084029 45 0 0.0 4.0 0.00 0.00 0.00 53 1005.8
20260505083529 45 304 0.0 2.0 0.00 0.00 0.00 54 1005.7
20260505083049 45 0 0.0 2.0 0.00 0.00 0.00 53 1005.7
20260505082530 45 0 0.0 2.0 0.00 0.00 0.00 53 1005.4
20260505082030 46 0 0.0 3.0 0.00 0.00 0.00 52 1005.4
20260505081545 46 0 0.0 3.0 0.00 0.00 0.00 52 1005.3
20260505081034 46 317 0.0 3.0 0.00 0.00 0.00 52 1005.2
20260505080530 46 0 0.0 4.0 0.00 0.00 0.00 51 1005.1
20260505080042 46 0 1.0 8.0 0.00 0.00 0.00 51 1005.1
20260505075532 46 331 0.0 8.0 0.00 0.00 0.00 50 1005.0
20260505075029 47 254 2.0 8.0 0.00 0.00 0.00 50 1004.7
20260505074540 47 0 1.0 7.0 0.00 0.00 0.00 50 1004.5
20260505074030 47 0 1.0 7.0 0.00 0.00 0.00 50 1004.5
20260505073530 47 360 2.0 6.0 0.00 0.00 0.00 50 1004.4
20260505073048 47 355 1.0 9.0 0.00 0.00 0.00 50 1004.4
20260505072530 47 347 1.0 9.0 0.00 0.00 0.00 50 1004.3
20260505072030 48 360 2.0 9.0 0.00 0.00 0.00 50 1004.4
20260505071546 48 346 2.0 6.0 0.00 0.00 0.00 50 1004.5
20260505071030 48 24 1.0 11.0 0.00 0.00 0.00 50 1004.5
20260505070531 48 348 3.0 11.0 0.00 0.00 0.00 49 1004.3
20260505070046 48 0 2.0 11.0 0.00 0.00 0.00 48 1004.4
20260505065531 48 305 0.0 4.0 0.00 0.00 0.00 48 1004.2
20260505065033 49 0 1.0 5.0 0.00 0.00 0.00 47 1004.1
20260505064541 49 313 1.0 8.0 0.00 0.00 0.00 47 1004.2
20260505064030 49 0 1.0 9.0 0.00 0.00 0.00 46 1004.0
20260505063530 49 296 1.0 9.0 0.00 0.00 0.00 46 1004.0
20260505063042 49 271 2.0 11.0 0.00 0.00 0.00 45 1003.9
20260505062533 50 265 3.0 11.0 0.00 0.00 0.00 45 1003.7
20260505062030 50 352 3.0 15.0 0.00 0.00 0.00 45 1003.8
20260505061548 50 257 4.0 17.0 0.00 0.00 0.00 44 1003.5
20260505061032 50 254 6.0 17.0 0.00 0.00 0.00 44 1003.5
20260505060530 50 260 4.0 15.0 0.00 0.00 0.00 45 1003.6
20260505060046 50 234 4.0 13.0 0.00 0.00 0.00 45 1003.6
20260505055533 51 272 3.0 14.0 0.00 0.00 0.00 46 1003.5
20260505055031 51 9 3.0 14.0 0.00 0.00 0.00 47 1003.5
20260505054545 51 312 2.0 11.0 0.00 0.00 0.00 48 1003.5
20260505054033 52 360 2.0 12.0 0.00 0.00 0.00 48 1003.4
20260505053531 52 268 3.0 12.0 0.00 0.00 0.00 48 1003.3
20260505053046 52 41 3.0 12.0 0.00 0.00 0.00 47 1003.3
20260505052531 52 5 2.0 9.0 0.00 0.00 0.00 48 1003.3
20260505052030 53 340 2.0 10.0 0.00 0.00 0.00 48 1003.2
20260505051540 53 348 1.0 10.0 0.00 0.00 0.00 48 1003.1
20260505051030 53 24 1.0 12.0 0.00 0.00 0.00 47 1003.0
20260505050533 54 5 2.0 13.0 0.00 0.00 0.00 46 1003.0
20260505041541 56 281 2.0 9.0 0.00 0.00 0.00 42 1001.8
20260505041029 56 301 2.0 10.0 0.00 0.00 0.00 42 1001.7
20260505040531 56 26 5.0 10.0 0.00 0.00 0.00 41 1002.0
20260505040042 56 248 3.0 10.0 0.00 0.00 0.00 41 1002.0
20260505035530 57 286 3.0 10.0 0.00 0.00 0.00 41 1001.9
20260505035030 57 273 3.0 10.0 0.00 0.00 0.00 40 1001.8
20260505034547 57 281 4.0 10.0 0.00 0.00 0.00 40 1001.7
20260505034030 57 267 3.0 8.0 0.00 0.00 0.00 40 1001.8
20260505033530 57 295 2.0 12.0 0.00 0.00 0.00 40 1001.6
20260505033106 57 284 2.0 12.0 0.00 0.00 0.00 38 1001.7
20260505032529 58 264 6.0 12.0 0.00 0.00 0.00 38 1001.8
20260505032029 58 278 3.0 11.0 0.00 0.00 0.00 38 1001.6
20260505031543 58 290 4.0 11.0 0.00 0.00 0.00 37 1001.5
20260505031029 58 240 3.0 10.0 0.00 0.00 0.00 38 1001.4
20260505030530 58 278 2.0 8.0 0.00 0.00 0.00 38 1001.2
20260505030048 58 263 2.0 8.0 0.00 0.00 0.00 38 1001.2
20260505025531 58 264 1.0 4.0 0.00 0.00 0.00 38 1001.2
20260505025030 59 274 0.0 4.0 0.00 0.00 0.00 38 1001.1
20260505024547 59 267 1.0 7.0 0.00 0.00 0.00 37 1000.9
20260505024030 59 273 1.0 7.0 0.00 0.00 0.00 37 1000.9
20260505023530 60 274 3.0 7.0 0.00 0.00 0.00 36 1000.7
20260505023058 60 275 2.0 7.0 0.00 0.00 0.00 36 1000.6
20260505022530 60 261 1.0 8.0 0.00 0.00 0.00 36 1000.4
20260505022029 60 272 3.0 8.0 0.00 0.00 0.00 36 1000.3
20260505021546 60 286 2.0 7.0 0.00 0.00 0.00 36 999.8
20260505021033 61 288 2.0 9.0 0.00 0.00 0.00 35 999.6
20260505020530 61 0 2.0 10.0 0.00 0.00 0.00 35 999.5
20260505020050 61 263 4.0 10.0 0.00 0.00 0.00 35 999.6
20260505015530 61 262 5.0 11.0 0.00 0.00 0.00 35 999.5
20260505015030 62 257 3.0 11.0 0.00 0.00 0.00 35 999.3
20260505014551 62 272 6.0 13.0 0.00 0.00 0.00 34 999.1
20260505014033 62 273 6.0 13.0 0.00 0.00 0.00 34 999.1
20260505013529 62 294 5.0 13.0 0.00 0.00 0.00 34 998.9
20260505013051 63 255 6.0 13.0 0.00 0.00 0.00 34 999.0
20260505012532 63 267 5.0 12.0 0.00 0.00 0.00 34 999.0
20260505012030 63 265 5.0 13.0 0.00 0.00 0.00 34 998.8
20260505011555 64 258 5.0 13.0 0.00 0.00 0.00 33 999.0
20260505011030 64 233 5.0 17.0 0.00 0.00 0.00 33 998.8
20260505010530 64 281 6.0 17.0 0.00 0.00 0.00 33 998.8
20260505010049 65 265 8.0 17.0 0.00 0.00 0.00 32 998.4
20260505005530 65 269 5.0 11.0 0.00 0.00 0.00 34 998.3
20260505005030 66 293 6.0 15.0 0.00 0.00 0.00 33 998.2
20260505004549 66 307 7.0 15.0 0.00 0.00 0.00 33 998.0
20260505004030 67 250 4.0 12.0 0.00 0.00 0.00 35 997.5
20260505003529 67 259 5.0 12.0 0.00 0.00 0.00 34 997.6
20260505003042 68 5 5.0 12.0 0.00 0.00 0.00 35 997.4
20260505002530 68 296 4.0 13.0 0.00 0.00 0.00 34 997.2
20260505002031 69 15 6.0 14.0 0.00 0.00 0.00 34 997.3
20260505001541 70 285 4.0 14.0 0.00 0.00 0.00 34 997.2
20260505001034 71 284 4.0 12.0 0.00 0.00 0.00 35 997.1
20260505000530 71 276 3.0 13.0 0.00 0.00 0.00 35 997.0
20260505000045 72 278 6.0 16.0 0.00 0.00 0.00 35 996.8
20260504235530 72 238 8.0 16.0 0.00 0.00 0.00 34 996.9
20260504235030 72 244 8.0 16.0 0.00 0.00 0.00 33 996.8
20260504234612 72 300 7.0 15.0 0.00 0.00 0.00 34 996.8
20260504234032 73 284 4.0 13.0 0.00 0.00 0.00 35 996.6
20260504233530 73 254 2.0 13.0 0.00 0.00 0.00 37 996.6
20260504233050 73 315 5.0 14.0 0.00 0.00 0.00 36 996.5
20260504232529 74 277 5.0 14.0 0.00 0.00 0.00 36 996.4
20260504232029 74 258 5.0 14.0 0.00 0.00 0.00 35 996.3
20260504231552 75 288 3.0 14.0 0.00 0.00 0.00 36 996.3
20260504231032 76 277 5.0 14.0 0.00 0.00 0.00 34 996.2
20260504230531 76 287 6.0 19.0 0.00 0.00 0.00 33 996.0
20260504230043 76 284 10.0 19.0 0.00 0.00 0.00 33 996.1
20260504225532 76 254 7.0 18.0 0.00 0.00 0.00 34 996.0
20260504225034 76 263 9.0 18.0 0.00 0.00 0.00 34 996.0
20260504224541 77 271 6.0 13.0 0.00 0.00 0.00 34 995.9
20260504224030 77 269 7.0 13.0 0.00 0.00 0.00 34 996.0
20260504223532 77 239 3.0 12.0 0.00 0.00 0.00 34 995.8
20260504223041 76 262 5.0 12.0 0.00 0.00 0.00 33 995.8
20260504222530 76 237 5.0 12.0 0.00 0.00 0.00 32 995.7
20260504222030 76 236 4.0 12.0 0.00 0.00 0.00 32 995.8
20260504221554 76 269 5.0 13.0 0.00 0.00 0.00 31 995.7
20260504221032 76 125 6.0 13.0 0.00 0.00 0.00 30 995.7
20260504220530 77 246 6.0 17.0 0.00 0.00 0.00 31 995.6
20260504220047 78 241 5.0 17.0 0.00 0.00 0.00 31 995.6
20260504215529 77 200 7.0 15.0 0.00 0.00 0.00 31 995.8
20260504215030 77 205 5.0 14.0 0.00 0.00 0.00 30 995.7
20260504214548 77 269 7.0 14.0 0.00 0.00 0.00 31 995.8
20260504214032 77 241 5.0 16.0 0.00 0.00 0.00 31 995.8
20260504213531 76 262 5.0 16.0 0.00 0.00 0.00 31 995.7
20260504213048 77 248 6.0 16.0 0.00 0.00 0.00 32 995.8
20260504212531 77 240 5.0 17.0 0.00 0.00 0.00 33 995.9
20260504212034 77 259 7.0 17.0 0.00 0.00 0.00 32 995.8
20260504211540 77 221 6.0 20.0 0.00 0.00 0.00 30 995.9
20260504211030 77 223 9.0 20.0 0.00 0.00 0.00 30 995.8
20260504210530 76 209 7.0 15.0 0.00 0.00 0.00 31 995.9
20260504210055 77 250 5.0 17.0 0.00 0.00 0.00 31 996.0
20260504205531 77 277 8.0 17.0 0.00 0.00 0.00 30 996.0
20260504205029 77 193 5.0 11.0 0.00 0.00 0.00 32 996.0
20260504204619 76 217 5.0 11.0 0.00 0.00 0.00 34 996.1
20260504204030 77 243 4.0 12.0 0.00 0.00 0.00 32 996.1
20260504203535 77 265 7.0 13.0 0.00 0.00 0.00 31 996.2
20260504203044 77 255 7.0 17.0 0.00 0.00 0.00 31 996.3
20260504202531 77 203 8.0 21.0 0.00 0.00 0.00 31 996.3
20260504202030 77 209 8.0 21.0 0.00 0.00 0.00 31 996.3
20260504201542 77 260 6.0 16.0 0.00 0.00 0.00 32 996.4
20260504201030 77 221 7.0 21.0 0.00 0.00 0.00 32 996.5
20260504200530 77 239 6.0 21.0 0.00 0.00 0.00 33 996.6
20260504200054 77 238 8.0 21.0 0.00 0.00 0.00 32 996.8
20260504195530 77 236 6.0 17.0 0.00 0.00 0.00 33 996.9
20260504195031 77 207 8.0 16.0 0.00 0.00 0.00 33 996.8
20260504194551 77 268 6.0 15.0 0.00 0.00 0.00 32 996.9
20260504194031 77 194 7.0 15.0 0.00 0.00 0.00 32 996.8
20260504193530 77 239 5.0 15.0 0.00 0.00 0.00 34 997.0
20260504193046 76 207 6.0 15.0 0.00 0.00 0.00 33 997.0
20260504192531 77 234 5.0 20.0 0.00 0.00 0.00 32 997.1
20260504192031 76 234 7.0 20.0 0.00 0.00 0.00 33 997.0
20260504191544 76 207 6.0 19.0 0.00 0.00 0.00 32 997.2
20260504191033 76 209 8.0 20.0 0.00 0.00 0.00 33 997.2
20260504190531 76 199 9.0 20.0 0.00 0.00 0.00 32 997.3
20260504190050 76 246 6.0 20.0 0.00 0.00 0.00 33 997.5
20260504185530 76 249 9.0 20.0 0.00 0.00 0.00 31 997.5
20260504185030 76 208 7.0 21.0 0.00 0.00 0.00 33 997.4
20260504184558 76 221 10.0 22.0 0.00 0.00 0.00 32 997.5
20260504184030 76 223 8.0 24.0 0.00 0.00 0.00 33 997.4
20260504183530 76 223 6.0 27.0 0.00 0.00 0.00 34 997.5
20260504183056 75 267 8.0 27.0 0.00 0.00 0.00 32 997.4
20260504182532 75 256 6.0 20.0 0.00 0.00 0.00 32 997.5
20260504182034 76 265 8.0 20.0 0.00 0.00 0.00 31 997.6
20260504181545 75 191 5.0 24.0 0.00 0.00 0.00 33 997.4
20260504181030 75 205 7.0 24.0 0.00 0.00 0.00 32 997.5
20260504180530 75 198 7.0 20.0 0.00 0.00 0.00 34 997.5
20260504180045 75 204 7.0 15.0 0.00 0.00 0.00 32 997.5
20260504175531 74 263 5.0 19.0 0.00 0.00 0.00 33 997.5
20260504175030 74 268 7.0 19.0 0.00 0.00 0.00 32 997.5
20260504174542 74 265 8.0 21.0 0.00 0.00 0.00 32 997.5
20260504174031 74 148 8.0 21.0 0.00 0.00 0.00 32 997.5
20260504173533 75 227 8.0 20.0 0.00 0.00 0.00 32 997.5
20260504173041 75 153 8.0 20.0 0.00 0.00 0.00 33 997.4
20260504172530 75 225 8.0 17.0 0.00 0.00 0.00 32 997.6
20260504172030 74 196 8.0 24.0 0.00 0.00 0.00 31 997.6
20260504171546 74 227 10.0 24.0 0.00 0.00 0.00 30 997.8
20260504171031 74 253 9.0 23.0 0.00 0.00 0.00 30 998.1
20260504170531 74 152 7.0 20.0 0.00 0.00 0.00 33 997.9
20260504151034 70 200 5.0 16.0 0.00 0.00 0.00 36 999.4
20260504150530 69 155 6.0 13.0 0.00 0.00 0.00 36 999.5
20260504141031 64 229 5.0 11.0 0.00 0.00 0.00 43 1000.0
20260504140531 64 225 5.0 13.0 0.00 0.00 0.00 44 1000.2